Location: Unspecified
(41.1637°N, 24.2901°E)
Time: 14:50:58
(UTC+01:00)

ARIANE 6 FM1 Upper Stage - Pass Details

Date: 27 January 2026
Orbit: 522 x 609 km, 62.0° (Epoch: 11 February)

Event Time Altitude Azimuth Distance (km) Brightness Sun altitude
Rises 16:53:46 0° 223° (SW) 2,718 7.5 -4.4°
Reaches altitude 10° 16:56:01 10° 227° (SW) 1,814 6.6 -4.8°
Maximum altitude 17:00:03 63° 309° (NW) 605 3.0 -5.5°
Drops below altitude 10° 17:04:01 10° 31° (NNE) 1,783 4.8 -6.2°
Enters shadow 17:05:36 - 34° (NE) 2,417 5.4 -6.5°
